GFSMW_850_spd_021.txt.gz
Wind_Speed
24 22 19 19 24 25 25 22 21 21 20 20 25 19 12 12 11 7 5 5 4 5 8 8 12 15 17 19 21 22 21 21 21 20 21 21 18 9 12 14 12 14 14
22 24 22 18 27 29 21 22 20 15 18 16 19 13 16 15 9 8 9 9 7 6 9 12 15 16 18 20 19 19 21 17 16 19 19 12 21 6 10 15 17 20 17
32 31 29 22 24 27 24 18 20 17 19 20 18 20 18 16 14 11 10 8 7 8 13 15 17 18 21 21 22 21 18 17 16 17 14 9 5 21 11 19 11 17 19
34 31 27 27 20 22 21 15 15 22 24 22 22 25 24 22 18 14 12 10 10 13 17 20 19 20 20 20 21 20 19 20 22 18 14 16 16 17 15 12 12 11 15
37 32 27 25 23 19 16 9 25 21 22 29 25 23 22 21 22 22 16 9 11 15 19 20 19 18 19 18 15 15 16 18 16 16 17 18 20 19 17 23 21 20 19
34 29 25 23 23 20 18 21 24 29 30 25 26 25 27 28 24 19 13 11 15 18 16 15 16 17 16 15 14 15 17 19 20 20 23 17 12 13 14 18 21 24 22
31 28 29 26 24 24 24 28 31 28 28 26 27 26 24 21 18 14 14 17 16 13 14 15 16 15 14 15 15 16 20 21 22 20 13 14 13 15 17 13 17 19 23
29 28 27 28 29 28 29 27 27 27 28 28 27 24 21 18 16 15 15 14 11 11 13 14 14 15 12 13 17 19 19 14 15 14 15 16 17 14 13 14 14 20 27
26 26 28 28 27 28 27 24 25 26 27 26 25 23 21 17 14 13 11 10 10 11 11 13 14 14 14 14 14 18 16 15 14 16 16 18 17 12 16 18 17 17 25
27 30 31 29 28 28 25 25 25 26 24 23 18 18 14 12 12 10 9 10 10 11 13 14 15 16 14 10 12 15 14 15 17 17 18 16 15 14 18 18 16 16 23
34 34 32 30 30 28 24 26 25 25 25 23 18 16 12 12 10 9 10 11 13 13 16 15 16 15 11 12 13 16 21 19 16 14 10 11 13 19 20 17 20 23 25
38 36 35 34 33 31 28 27 28 27 27 25 19 16 12 12 11 10 12 13 15 18 20 18 18 11 15 18 20 22 16 12 13 14 12 16 16 17 20 22 26 28 28
37 37 37 37 36 33 30 30 31 29 27 26 22 17 15 13 12 13 11 14 16 20 21 21 19 11 15 20 20 17 14 9 12 10 12 17 18 19 22 23 27 30 32
36 37 39 40 39 36 32 31 31 32 28 26 20 17 14 14 17 14 13 15 19 20 20 22 16 13 19 20 19 18 17 14 16 19 17 16 18 21 24 28 30 27 28
20 32 39 40 37 32 30 31 31 31 30 25 19 16 13 20 17 16 17 19 19 20 23 20 15 17 19 20 22 16 17 21 21 17 17 20 22 25 27 26 26 28 26
6 9 24 36 35 32 31 31 31 31 33 28 22 14 18 19 16 16 11 19 18 19 18 19 20 21 20 20 21 19 17 17 16 17 19 20 22 22 23 24 24 24 27
0 4 2 17 27 29 29 30 29 30 30 25 20 22 19 17 16 13 13 19 19 17 20 20 22 21 21 21 20 21 18 17 18 20 19 20 22 22 23 24 25 22 23
4 3 3 4 10 15 21 23 28 28 25 19 23 20 16 14 10 6 11 18 18 22 20 22 24 22 21 21 19 18 18 19 20 20 19 21 20 20 21 23 22 23 21
8 6 6 10 12 16 16 20 24 23 20 26 22 16 12 8 3 8 16 18 21 20 21 22 21 22 19 19 19 18 19 20 20 20 22 18 17 20 22 23 25 24 20
11 6 5 6 8 12 16 25 27 26 27 22 16 11 5 5 7 11 16 23 24 23 24 19 19 20 22 22 22 23 22 20 19 21 19 17 18 20 21 23 24 21 17
5 5 6 5 12 19 24 26 26 24 16 16 13 4 5 5 9 18 22 22 22 20 15 17 20 23 24 24 21 19 18 16 18 19 16 18 19 19 20 21 17 14 15
3 3 3 8 12 13 18 19 16 10 5 2 9 12 7 10 19 21 19 19 21 21 19 19 19 23 24 24 21 18 17 18 19 19 17 16 17 13 16 13 11 13 15
3 2 1 4 5 4 4 6 10 12 19 20 8 4 13 18 17 17 17 18 14 14 17 18 15 19 22 24 23 19 17 18 18 19 18 17 13 15 13 11 13 14 16
4 3 4 5 6 8 8 7 10 6 2 3 8 15 16 15 14 16 15 16 17 21 20 20 23 24 22 22 24 22 21 17 18 18 19 19 18 18 15 13 14 14 15
6 7 9 9 6 4 4 3 2 5 9 12 14 15 15 15 16 16 17 16 17 21 24 23 20 21 26 27 24 26 25 20 20 19 22 22 22 21 17 13 15 13 14
9 9 9 7 6 5 6 9 11 14 15 16 16 16 17 17 18 19 19 16 19 24 24 23 23 22 22 24 24 27 25 26 23 22 24 25 25 23 17 14 16 14 14

GFSMW_850_spd_024.txt.gz
Wind_Speed
38 30 30 31 29 30 33 31 30 31 30 31 30 28 26 20 13 11 11 11 8 5 6 8 11 15 20 21 20 19 19 19 19 17 17 18 6 6 9 11 10 11 12
37 37 34 36 34 30 30 30 30 31 30 26 25 27 26 20 13 13 11 9 9 10 8 9 14 18 19 19 19 19 20 18 16 16 18 4 16 4 4 13 16 17 17
38 35 36 36 36 34 31 30 29 26 26 24 26 27 21 19 19 17 14 14 15 12 10 14 19 20 19 19 19 20 18 16 16 18 14 6 4 16 6 10 7 12 15
40 36 33 35 38 38 30 25 25 27 27 26 29 31 28 28 25 19 19 19 16 12 13 18 20 17 19 18 18 17 16 16 15 17 16 14 16 13 8 13 15 13 15
42 41 39 36 32 31 29 21 25 26 26 29 30 26 26 23 23 24 21 17 14 13 16 18 17 18 17 17 16 14 13 14 16 16 16 17 20 21 19 16 14 18 18
36 40 35 28 27 24 23 19 22 28 31 30 29 28 27 28 29 26 21 16 15 17 18 18 16 15 16 16 15 13 13 15 19 19 19 17 12 14 15 18 20 21 19
36 40 34 30 28 27 22 17 22 29 29 28 27 27 30 31 27 24 20 19 19 17 14 14 14 14 15 14 13 14 15 18 15 13 13 12 15 16 15 16 19 22 24
39 39 35 32 31 27 27 24 25 26 25 28 28 26 25 23 22 21 19 17 14 13 12 15 14 15 15 14 15 16 15 18 15 16 17 17 16 18 20 19 17 21 26
38 38 35 35 28 27 29 26 25 28 30 27 25 24 24 23 21 19 17 13 11 12 14 12 14 16 16 16 14 15 15 17 18 20 18 17 17 19 20 17 16 17 22
34 36 36 30 28 28 27 27 27 30 29 26 23 22 22 21 18 16 14 13 13 11 13 14 17 16 17 15 13 14 16 17 21 19 17 15 17 18 19 16 18 19 21
38 37 35 33 30 30 28 28 30 30 31 30 28 26 24 22 18 18 16 12 11 16 15 16 18 18 19 17 15 16 18 21 20 21 16 11 14 14 17 18 20 22 25
38 37 35 33 32 32 31 32 32 32 31 31 30 26 24 23 20 18 15 12 13 13 15 19 20 20 20 16 16 21 23 21 18 17 14 15 14 16 19 20 23 23 24
41 40 39 37 38 38 37 37 36 34 31 31 30 27 25 23 20 17 14 14 13 13 16 18 19 21 19 14 17 22 22 19 18 17 16 17 20 22 21 20 22 26 29
40 40 40 42 43 43 42 40 37 32 31 32 32 29 25 21 17 15 16 15 13 12 12 16 22 22 17 14 18 22 20 19 21 19 22 23 21 22 22 25 28 27 25
31 36 39 42 43 43 42 40 33 32 32 34 32 29 23 17 14 18 19 16 11 12 12 19 19 20 19 20 20 21 21 18 20 22 22 21 22 22 25 25 24 24 26
7 12 32 37 39 40 40 36 33 34 34 35 33 26 20 18 22 23 19 10 8 6 15 18 23 21 22 20 20 20 20 19 19 21 21 20 21 22 24 23 22 23 26
12 9 4 8 23 33 35 35 34 35 35 33 28 26 23 25 28 24 18 9 9 16 17 23 23 19 21 22 20 20 19 21 20 22 21 21 23 24 21 19 20 22 21
10 8 5 2 5 13 22 28 32 34 34 32 31 27 28 30 26 21 11 8 11 14 23 24 19 22 23 22 20 19 21 21 23 22 21 22 24 22 19 19 21 22 22
6 3 3 5 6 12 20 28 31 32 32 31 27 25 22 18 6 4 12 13 9 20 22 22 24 24 25 21 19 21 22 23 23 21 19 21 22 19 19 20 22 24 22
3 3 5 7 10 13 20 26 28 31 30 26 23 17 12 4 7 18 16 10 18 20 22 23 22 18 18 18 19 21 21 21 22 20 19 20 18 18 19 20 22 23 18
4 3 3 7 6 9 16 22 25 26 21 17 11 11 13 17 23 6 13 17 19 20 21 22 20 20 20 20 21 22 22 22 21 20 19 20 19 17 17 18 20 17 16
7 6 4 7 7 8 11 14 16 14 13 19 20 18 25 17 6 14 17 17 17 19 18 18 20 19 22 19 21 22 22 21 23 21 19 19 19 16 14 17 16 15 16
9 9 9 10 9 6 3 1 3 7 10 15 13 7 6 11 15 16 16 16 16 18 19 17 17 21 22 20 22 24 24 22 24 21 19 19 19 17 16 17 15 14 15
10 10 9 9 7 4 2 2 3 4 5 5 7 11 13 15 15 16 16 18 18 19 20 20 23 23 21 21 27 30 28 27 28 26 22 19 20 19 20 19 16 15 15
9 7 8 9 9 8 8 8 7 7 9 11 13 15 16 17 18 18 19 20 21 21 22 22 25 28 28 24 21 22 25 28 28 29 23 22 23 21 21 20 18 16 14
11 10 11 10 10 8 8 9 11 12 13 15 16 17 18 19 21 23 25 23 24 25 24 26 27 27 26 26 26 25 23 22 21 27 29 28 25 23 23 21 20 19 14

GFSMW_850_spd_027.txt.gz
Wind_Speed
28 28 27 25 27 28 29 30 29 29 29 30 31 28 26 23 16 9 9 10 10 10 10 6 6 9 13 18 22 24 22 20 19 16 14 14 8 7 10 10 13 13 13
35 33 31 30 28 28 33 32 31 30 31 31 31 28 26 22 16 14 12 12 13 12 8 7 9 12 17 21 25 24 22 21 18 15 14 1 8 18 9 12 14 16 15
39 39 39 37 32 31 32 34 32 32 33 32 29 27 27 24 23 18 17 17 15 12 10 11 12 14 19 24 25 23 20 18 17 14 10 5 4 8 16 10 15 10 16
41 40 43 42 39 36 35 36 36 33 33 33 32 32 33 31 28 23 21 18 15 13 13 14 15 18 22 23 22 20 19 16 14 13 12 10 11 10 9 12 15 19 14
42 45 45 44 41 38 36 36 33 33 35 34 35 33 34 28 26 24 22 18 16 16 17 16 16 19 22 21 19 17 15 12 12 13 14 15 17 17 16 17 12 14 17
37 42 45 43 42 39 39 32 27 28 34 33 33 31 28 28 26 25 23 21 20 19 18 15 15 19 19 25 18 15 14 14 15 18 15 13 13 13 15 17 18 19 20
35 38 40 41 40 37 32 29 29 28 28 31 32 27 27 27 26 27 27 25 22 19 14 13 14 19 23 16 15 14 15 15 16 14 13 13 13 15 16 19 20 21 19
38 41 41 40 36 32 30 27 27 24 29 32 28 27 28 29 31 30 28 24 21 16 14 17 24 14 14 15 14 14 13 13 14 15 16 17 16 16 17 19 21 20 22
32 40 38 40 36 31 27 27 27 25 25 27 29 28 26 29 33 31 28 25 21 15 19 18 13 11 13 15 14 11 10 12 15 17 19 20 17 16 19 20 20 23 21
26 34 37 38 35 28 28 24 26 26 28 25 27 28 30 31 31 30 29 26 22 22 16 14 10 11 12 15 15 14 12 13 16 20 18 18 16 15 17 18 19 21 23
26 28 32 37 35 31 26 24 29 32 30 28 29 32 30 30 30 28 26 23 19 12 9 11 10 10 14 17 16 13 13 16 17 20 18 16 14 17 19 20 20 22 22
25 26 33 38 37 35 30 30 32 32 31 31 32 29 28 28 29 29 26 22 17 14 11 9 10 12 15 18 15 13 14 17 18 17 18 18 17 18 18 19 21 23 21
27 31 36 37 38 37 36 35 36 36 36 32 29 28 29 28 28 27 24 22 19 15 13 9 8 11 17 16 16 15 16 17 20 17 19 19 18 21 21 22 23 23 25
27 34 36 38 38 38 40 40 39 39 34 30 28 30 30 29 29 26 24 22 19 16 13 8 7 16 15 17 16 17 18 19 20 18 19 20 21 20 22 23 24 24 24
24 30 36 36 36 39 42 42 40 37 34 31 31 32 31 31 29 25 22 19 19 16 11 5 13 16 18 18 19 20 19 19 21 19 20 22 21 22 23 23 24 23 23
9 16 23 30 35 38 40 41 38 36 34 32 33 33 34 30 26 22 22 21 18 13 5 11 21 21 22 20 19 19 19 19 21 19 21 21 22 22 23 24 24 21 21
9 6 1 7 13 20 27 33 36 35 35 36 35 35 32 27 25 25 25 22 16 11 9 24 17 22 23 21 20 20 18 20 21 21 21 23 22 22 23 24 22 20 21
9 7 5 2 0 4 12 20 26 31 35 35 34 32 30 27 26 26 20 10 8 15 24 16 20 23 24 23 21 20 19 20 21 22 23 23 22 21 23 21 20 20 21
7 5 5 5 6 9 13 18 23 26 28 27 27 27 26 26 22 16 10 13 17 29 16 19 23 25 25 22 19 17 17 19 21 21 22 23 22 19 21 20 20 21 21
1 2 5 6 8 8 9 13 16 20 20 21 21 22 22 19 11 9 14 26 28 13 19 23 23 24 24 21 19 17 19 21 21 22 24 23 20 20 20 20 19 21 19
2 1 1 3 8 8 7 7 9 12 17 20 21 19 14 17 24 25 25 13 12 20 23 23 23 22 22 22 21 20 22 23 22 23 25 23 21 21 20 19 19 18 18
8 6 6 8 7 5 2 6 7 8 5 8 12 16 20 20 12 9 12 17 20 22 22 23 23 21 21 21 20 22 22 24 26 27 25 24 23 22 20 19 17 17 18
10 10 9 10 12 11 8 8 7 3 8 7 7 5 6 9 13 16 18 19 20 22 23 24 26 25 21 22 20 21 22 24 30 31 30 26 26 24 22 20 18 18 18
11 9 9 9 10 8 6 6 7 5 4 4 6 9 11 13 15 17 19 21 22 23 25 27 28 28 28 26 25 24 22 22 29 31 31 31 34 26 25 23 21 20 18
11 9 8 9 11 10 9 7 5 4 5 7 9 10 12 14 16 18 20 22 24 26 29 32 30 31 33 30 25 25 25 27 26 25 26 30 34 32 28 26 22 21 20
13 12 13 12 10 5 3 3 5 8 10 13 15 17 19 20 23 25 29 27 29 29 28 30 33 36 37 33 26 26 26 26 25 26 27 27 27 32 31 29 24 22 22

GFSMW_850_spd_033.txt.gz
Wind_Speed
21 22 26 32 33 31 28 25 24 24 25 27 27 26 24 26 25 20 17 14 14 14 15 16 15 13 9 9 7 7 7 10 12 12 16 11 8 8 8 8 8 10 12
22 23 26 31 34 33 33 31 29 26 27 29 28 27 26 25 22 20 20 17 16 16 18 18 15 13 12 9 6 7 11 15 17 13 12 3 8 9 10 14 10 14 11
25 26 27 30 32 35 35 33 29 29 29 29 28 29 26 27 25 26 23 21 18 19 20 19 17 15 11 7 5 10 18 20 21 15 9 5 4 11 9 10 13 10 14
31 29 30 31 33 33 33 32 31 31 32 32 32 32 32 30 30 26 25 23 23 22 22 21 17 14 11 6 9 17 22 19 17 14 13 13 13 6 9 7 10 16 13
34 34 36 35 34 33 32 31 32 33 33 33 34 32 33 33 30 28 27 26 25 24 23 20 18 16 13 12 17 15 15 21 16 15 14 14 13 13 11 15 11 11 11
36 36 35 34 37 36 35 34 35 34 35 36 33 35 34 33 33 31 29 28 28 26 22 22 20 17 16 16 12 24 25 12 17 15 13 12 8 8 9 13 14 14 13
41 38 37 36 37 37 38 36 34 26 21 25 34 35 35 34 35 32 28 30 30 29 26 24 23 20 17 13 19 18 11 13 12 14 13 12 11 12 11 13 15 14 14
38 45 44 40 39 39 37 35 34 34 20 24 34 38 36 36 34 33 28 29 29 29 29 25 22 19 13 16 7 15 10 11 14 14 12 12 11 13 14 13 13 16 16
23 29 37 43 40 37 36 36 36 36 30 24 23 32 33 34 29 30 30 29 31 30 29 26 22 19 15 12 16 9 8 18 17 13 12 11 11 12 14 15 15 14 18
10 17 22 31 36 35 33 31 32 30 30 25 22 24 27 24 27 31 29 30 30 32 31 27 23 18 14 11 11 8 19 15 13 12 11 10 10 12 12 13 13 15 16
5 9 14 16 20 24 25 25 25 26 25 25 22 19 20 22 27 28 30 30 32 34 31 27 23 17 17 18 10 11 15 13 12 12 11 10 11 12 12 12 14 17 17
4 5 7 9 11 15 18 21 23 23 22 17 18 20 21 24 25 24 25 27 27 33 30 25 20 17 14 11 6 7 11 13 12 12 14 14 13 14 14 15 16 19 19
3 7 9 9 10 13 18 21 20 21 18 19 18 19 21 25 27 24 24 22 26 29 30 25 23 20 18 14 8 16 10 14 13 14 15 15 18 17 15 17 20 21 22
7 7 10 10 11 13 14 15 16 19 21 20 21 22 24 27 25 20 21 24 27 29 27 27 21 17 17 12 12 24 13 19 20 19 20 20 21 20 18 18 21 22 23
4 4 4 4 4 5 7 10 15 16 17 18 19 20 20 19 19 22 23 24 25 26 24 23 23 21 18 12 20 21 19 22 25 25 25 24 24 22 21 20 21 22 24
6 6 5 4 3 1 2 4 7 9 10 12 14 16 18 19 21 22 22 21 21 23 24 22 21 17 12 30 30 25 20 24 25 25 25 26 25 25 23 23 22 24 24
19 18 16 13 11 8 6 4 3 4 7 9 12 15 18 19 20 21 22 21 23 25 23 21 20 26 34 30 29 19 23 26 28 28 27 27 27 26 26 26 24 25 25
19 19 17 14 11 8 6 5 5 6 7 7 9 12 13 13 14 16 17 19 22 24 23 30 29 32 28 29 26 20 27 29 29 29 28 29 28 27 27 26 26 25 24
17 16 13 11 10 9 9 8 8 8 7 5 4 4 5 6 9 10 13 17 18 21 20 23 25 27 27 17 22 25 28 28 29 27 26 26 26 26 26 28 27 26 25
15 14 14 12 10 10 8 6 8 7 7 8 7 5 3 2 5 7 10 14 15 18 23 24 20 18 22 23 24 24 26 28 29 28 28 27 27 26 27 29 27 28 26
15 14 14 11 10 9 7 8 10 12 13 12 9 6 4 2 4 9 13 15 17 12 14 18 20 23 24 25 25 25 27 29 29 29 29 30 29 30 29 30 31 30 25
16 15 15 15 14 13 9 13 13 13 10 6 2 1 3 4 4 4 6 9 13 16 18 21 23 24 25 25 27 27 27 29 32 33 30 29 30 31 32 31 33 28 30
18 18 17 18 16 13 11 10 11 8 5 4 4 2 3 4 6 8 10 12 15 18 21 24 28 30 30 31 29 28 29 28 30 35 33 31 30 29 31 34 35 34 31
20 19 17 17 17 13 11 10 10 8 5 4 3 3 5 7 10 12 14 15 18 21 23 25 27 31 32 29 25 30 30 30 32 32 34 35 32 31 32 33 33 32 32
21 19 17 17 16 13 11 10 8 5 2 3 5 7 9 11 13 15 17 18 19 20 22 22 22 26 28 26 30 32 35 33 34 33 36 37 37 35 35 33 31 29 27
21 19 17 16 15 12 10 8 5 3 3 5 8 10 13 15 17 18 19 20 21 21 21 21 21 22 25 29 31 32 35 37 34 35 35 34 35 34 36 32 30 27 24

GFSMW_850_spd_039.txt.gz
Wind_Speed
18 20 21 23 25 25 31 29 22 18 19 19 19 17 16 17 24 19 19 17 14 16 17 14 16 14 12 12 14 11 8 6 7 7 9 10 11 10 7 8 7 8 7
20 22 24 26 26 26 27 27 25 22 22 18 17 17 17 18 17 16 16 16 17 17 17 16 15 15 14 17 14 12 8 6 9 6 9 10 8 10 10 10 10 10 10
23 25 27 29 29 29 29 27 25 24 23 18 17 17 17 19 20 20 18 18 20 19 18 18 17 16 18 16 16 15 12 7 9 9 6 7 9 9 11 13 11 11 11
23 26 28 30 31 31 29 27 25 24 24 21 22 21 21 19 20 20 20 19 25 23 22 23 19 21 17 16 17 16 13 13 7 8 9 10 10 8 10 10 13 13 11
25 26 28 29 30 30 32 31 28 26 24 24 25 22 23 20 19 19 20 19 28 27 27 24 22 23 21 22 19 17 17 16 13 9 10 11 10 11 11 15 12 11 11
27 26 27 27 28 29 31 33 30 29 27 26 26 24 20 24 21 18 22 23 24 25 28 27 27 29 27 24 23 23 20 15 14 10 11 14 13 12 14 17 16 16 16
29 29 29 29 29 30 31 31 30 30 29 29 28 29 22 27 27 31 35 33 26 26 29 32 30 29 27 26 22 24 21 19 16 12 10 12 14 13 13 14 16 17 16
31 31 31 31 30 29 30 30 30 32 33 31 27 25 22 33 33 39 40 38 27 31 29 28 26 28 27 24 28 22 23 20 16 13 14 13 14 13 13 13 14 17 17
22 31 31 31 30 30 31 33 30 31 34 38 31 24 17 32 36 39 36 30 35 30 26 27 27 27 29 31 27 27 23 19 17 13 12 11 12 14 14 14 14 15 18
11 17 23 30 32 30 29 30 30 30 34 35 32 33 30 28 32 31 28 32 30 28 28 29 30 30 31 31 29 24 22 16 9 11 10 12 13 15 16 14 15 16 18
3 6 11 18 21 25 27 28 28 28 29 26 34 37 30 25 21 22 27 30 22 22 27 30 31 32 31 29 27 25 15 11 12 11 13 15 17 17 17 17 18 18 18
2 5 8 10 13 17 21 23 23 26 25 32 28 31 24 22 23 21 25 27 24 22 22 28 29 29 24 22 28 21 13 17 15 11 24 16 19 20 21 21 20 22 21
5 6 7 8 10 13 16 18 19 20 21 23 22 23 21 20 20 24 26 27 23 23 24 27 23 24 27 26 22 20 23 18 15 27 18 18 22 24 23 24 24 24 24
9 8 9 9 10 11 14 15 16 16 17 18 16 17 24 24 24 26 25 23 20 20 22 21 22 28 24 23 20 23 27 21 26 25 19 22 25 26 26 27 28 28 28
10 10 11 11 12 13 13 14 14 15 13 13 13 12 14 16 14 13 15 13 13 13 16 20 25 22 21 24 28 28 23 24 29 27 27 23 26 27 30 32 32 30 31
8 9 11 12 13 13 15 14 13 13 12 12 11 9 9 8 8 8 12 12 12 13 15 18 21 21 23 22 27 27 19 28 34 33 29 24 25 26 30 33 34 40 42
10 11 12 13 14 14 15 15 14 14 14 14 11 10 10 8 8 8 8 9 9 9 9 11 13 13 16 24 24 20 28 33 34 32 26 21 24 27 29 31 35 37 37
14 15 16 16 17 17 17 17 16 15 14 13 10 9 8 7 6 6 6 5 4 4 5 8 11 14 12 13 18 23 27 27 21 21 23 26 28 28 29 32 35 35 36
19 19 18 19 19 18 18 18 17 15 14 13 11 10 9 9 9 9 8 7 7 5 4 4 9 8 11 14 18 17 17 21 23 22 23 25 28 30 31 34 36 38 40
20 21 20 19 18 17 17 18 17 16 15 14 13 13 13 12 12 10 10 11 10 8 5 5 7 8 9 10 15 18 19 22 22 23 24 26 29 31 32 33 36 38 40
21 20 19 18 18 18 18 18 17 16 16 15 15 14 12 11 10 8 6 4 2 3 2 3 3 4 6 7 16 21 22 24 29 32 33 32 32 34 36 37 36 39 39
23 21 20 19 18 18 18 18 17 17 15 14 12 11 9 8 9 8 6 5 3 2 1 3 3 3 4 10 18 22 26 28 31 32 35 35 38 40 41 41 45 46 40
24 21 20 20 18 17 17 18 17 15 12 12 12 12 11 9 7 6 4 4 2 1 3 4 4 5 7 7 20 24 26 28 29 30 33 37 38 39 39 38 37 38 38
24 22 22 21 20 18 17 16 15 14 14 14 13 11 10 8 6 5 4 2 2 3 4 4 5 7 8 10 22 26 27 27 28 30 35 35 31 30 32 32 31 32 32
24 23 22 21 20 19 17 15 15 14 14 13 11 9 9 7 5 5 3 3 7 7 7 9 9 12 13 18 22 24 26 28 29 32 30 25 28 30 30 28 27 28 29
25 24 22 21 20 18 17 16 14 14 13 12 10 9 8 7 4 3 6 6 8 8 9 11 11 13 17 18 20 23 25 25 25 23 21 24 26 26 28 28 28 31 27

GFSMW_850_spd_042.txt.gz
Wind_Speed
18 20 23 18 23 20 26 32 29 25 24 21 25 23 24 23 32 24 22 19 18 21 21 20 23 20 17 17 15 19 18 15 15 11 6 17 18 16 12 10 10 8 13
26 26 27 24 25 31 32 32 30 30 33 25 24 23 26 24 25 29 24 23 19 21 21 20 23 19 19 20 22 20 16 12 14 10 8 5 11 16 12 12 13 13 14
32 30 31 33 31 28 33 32 28 24 24 23 19 23 20 17 22 17 21 22 21 22 23 20 24 22 19 23 25 21 18 13 16 14 8 3 4 10 13 16 16 15 17
33 35 33 34 35 35 31 30 30 29 29 26 28 28 26 27 26 22 20 19 20 24 24 22 24 24 22 25 26 21 20 20 16 12 13 10 13 6 6 12 15 17 19
30 38 39 39 37 38 37 33 31 32 31 29 30 28 26 25 25 27 27 24 24 27 27 27 29 27 26 25 24 23 20 23 20 14 11 10 14 13 13 17 13 15 18
30 31 38 38 40 37 40 40 36 35 36 27 26 24 27 25 23 21 23 27 29 30 27 28 32 29 29 27 30 26 26 23 20 19 15 12 15 11 11 16 17 17 17
28 30 35 40 41 42 41 41 40 38 35 32 29 28 27 29 31 29 25 26 27 31 30 24 29 32 31 29 29 27 27 26 22 20 17 16 13 15 15 20 19 19 21
34 32 32 36 40 42 43 43 42 39 38 35 33 34 27 35 39 32 30 32 30 36 34 31 29 32 31 25 25 27 29 21 23 22 19 17 19 15 16 17 17 21 23
33 37 37 38 37 41 43 43 41 38 38 39 42 42 30 31 39 35 33 31 29 33 33 34 28 27 29 24 29 31 28 26 23 21 19 18 17 15 17 19 20 20 25
10 24 31 31 39 40 42 42 41 40 38 38 43 47 35 34 32 31 31 31 30 33 31 30 30 29 29 28 30 31 29 26 23 16 10 13 14 15 17 21 21 21 24
2 4 7 10 24 38 35 42 43 40 37 41 44 43 39 38 34 26 26 27 29 27 23 28 28 26 28 30 32 33 29 26 18 18 22 21 15 25 23 27 24 24 24
2 6 6 7 11 15 16 33 39 39 31 39 40 33 39 38 34 27 23 24 25 24 27 23 21 23 27 31 33 29 26 20 21 23 21 21 24 20 22 22 27 28 27
10 9 6 7 8 11 15 15 27 27 26 30 31 26 27 36 33 26 23 24 25 26 25 19 21 22 25 27 28 26 24 26 26 23 24 19 19 18 24 27 28 28 28
13 10 14 11 10 12 14 16 17 19 19 24 25 23 24 26 29 26 23 23 24 24 21 21 23 26 26 25 25 27 25 27 25 27 19 20 21 24 25 29 29 31 31
5 10 9 15 14 14 16 16 17 19 16 19 23 25 26 30 27 25 22 20 20 19 20 21 22 21 22 24 24 22 20 23 24 22 21 26 29 26 24 27 31 32 35
9 10 14 17 15 15 16 20 23 24 19 19 22 23 21 17 14 15 17 17 17 15 14 15 17 19 20 19 13 18 22 20 16 25 27 30 32 25 22 22 28 32 37
8 9 13 18 20 18 21 20 19 19 17 18 18 14 13 14 16 16 16 14 13 12 11 12 12 12 13 10 11 15 15 19 22 27 31 27 21 20 26 30 34 35 36
13 13 15 17 20 20 19 20 18 20 20 17 16 17 17 15 14 13 13 13 13 12 10 10 9 9 8 9 9 11 13 18 22 21 19 22 24 25 26 30 35 38 41
19 19 19 21 22 24 23 24 23 22 21 19 17 15 14 13 13 12 12 11 10 10 9 7 6 6 8 8 9 14 18 17 18 21 20 22 26 28 30 34 38 42 45
20 21 22 23 24 24 25 26 23 22 20 19 17 16 14 12 13 13 12 12 12 12 11 9 8 7 2 3 10 13 16 19 22 24 26 28 31 33 35 39 43 47 50
24 24 24 25 25 25 25 25 24 22 20 18 17 16 16 15 12 11 12 12 10 7 7 7 5 4 8 9 12 15 19 23 24 27 30 32 34 35 34 33 36 38 40
25 26 26 25 24 24 25 24 23 21 21 21 20 18 14 11 10 11 12 10 10 11 6 7 6 7 9 9 16 20 21 21 25 29 31 32 33 34 34 30 28 30 31
28 26 26 26 24 22 23 23 23 23 23 20 16 13 15 15 14 12 12 11 10 12 12 9 8 8 8 15 18 19 19 22 25 26 28 30 31 29 28 30 30 29 28
29 27 26 25 24 22 22 24 24 21 18 19 19 19 18 17 14 14 13 14 13 11 9 9 10 13 15 19 18 19 21 22 24 26 27 27 24 21 28 32 31 30 27
28 27 27 25 23 22 22 18 17 19 21 21 21 20 19 17 18 15 13 12 8 9 10 11 12 13 14 15 18 20 21 22 23 25 24 22 21 28 30 30 28 28 30
27 25 24 25 23 20 19 18 18 19 21 21 19 18 19 14 7 8 8 7 8 9 9 9 11 12 12 13 16 17 18 19 19 20 18 19 23 25 28 31 31 29 30

GFSMW_850_spd_048.txt.gz
Wind_Speed
14 14 14 15 14 15 17 26 32 40 41 41 42 44 44 44 42 40 37 33 25 21 19 21 18 20 22 23 23 22 23 21 20 20 18 17 16 16 15 15 16 16 16
20 18 19 20 19 19 21 29 34 36 38 41 44 45 48 44 39 44 43 39 29 26 22 24 25 24 25 27 27 26 24 23 24 24 21 19 21 20 18 18 20 19 19
28 26 25 24 22 24 28 30 32 33 37 37 36 40 36 35 42 46 45 38 36 28 25 27 26 25 25 29 30 26 27 26 26 28 23 9 13 14 19 19 20 23 22
32 31 30 30 27 26 27 29 33 34 35 38 37 41 39 39 42 45 44 38 31 26 25 27 26 27 29 32 29 28 28 26 27 27 28 27 19 11 9 18 20 24 25
37 38 37 33 29 29 32 33 35 39 38 38 38 37 37 34 34 37 41 36 31 31 30 32 28 30 32 30 29 28 30 29 29 30 30 25 22 22 22 19 20 20 22
43 41 38 35 35 34 37 37 40 42 41 39 37 39 40 38 37 37 36 35 34 34 32 31 31 31 30 28 27 25 28 30 31 31 26 29 29 26 28 28 29 24 21
43 46 44 43 40 42 43 43 40 40 40 40 39 41 41 39 40 39 39 37 35 38 37 31 28 25 25 29 29 28 28 31 33 32 29 28 32 31 27 26 26 25 25
48 49 50 47 47 46 46 47 46 43 42 43 42 41 41 43 44 41 41 40 37 36 28 27 24 27 28 26 28 30 32 33 33 31 30 26 28 27 28 28 26 26 23
44 51 50 50 50 48 50 50 49 47 46 45 44 45 44 46 48 45 42 42 39 35 31 30 28 27 28 27 26 27 31 32 31 31 30 26 29 27 28 27 20 23 23
40 48 48 51 51 49 48 50 50 48 50 47 45 44 44 46 48 49 46 45 41 40 37 30 31 28 26 26 27 25 24 28 30 29 26 29 29 29 32 28 26 25 33
42 46 50 50 51 50 49 49 51 51 49 48 43 41 45 46 50 52 49 44 38 42 37 34 31 30 26 27 26 25 25 28 31 30 30 29 29 29 27 29 26 30 29
20 33 39 45 52 52 51 49 50 51 50 46 47 40 43 49 51 49 40 42 35 34 36 31 30 28 27 27 26 26 29 31 31 31 31 32 29 24 28 24 29 24 22
18 19 23 38 44 50 51 45 45 49 52 50 47 39 48 44 49 53 34 32 44 37 36 33 27 26 26 25 24 28 29 30 30 28 29 26 24 25 21 25 23 19 24
21 24 23 26 30 39 39 38 46 50 51 50 49 44 44 54 47 47 39 39 41 40 34 30 24 25 24 24 23 24 27 28 25 25 25 22 25 22 25 23 21 27 27
23 26 29 28 32 35 31 28 31 49 52 49 46 52 44 42 44 42 43 44 42 39 28 24 26 25 25 24 25 25 23 22 22 21 20 22 22 24 13 17 19 19 20
26 30 32 30 29 28 25 22 20 27 41 46 45 46 46 42 37 36 34 27 33 31 27 26 24 25 25 23 20 18 19 19 18 19 17 19 20 18 21 23 22 22 25
24 27 31 30 31 32 30 27 23 23 28 35 41 45 42 37 32 29 28 30 31 29 26 26 25 23 20 19 19 18 18 17 17 16 17 17 18 21 24 24 24 24 25
28 28 29 31 35 33 30 27 25 26 27 33 36 35 35 34 32 31 30 26 25 24 22 22 19 19 19 18 17 17 17 16 17 17 16 16 19 23 24 26 28 29 31
30 33 33 31 32 33 32 29 28 28 27 29 30 30 30 30 30 28 24 22 20 19 18 18 19 18 18 17 18 17 16 16 16 15 16 18 20 22 25 27 29 30 30
27 28 24 26 32 33 32 31 30 28 26 26 26 27 28 26 24 23 22 22 19 20 20 19 18 18 19 19 18 18 18 18 17 17 17 19 21 21 23 25 27 30 31
19 18 22 25 31 33 32 30 27 25 23 22 24 24 23 22 21 22 21 20 21 21 21 22 21 20 19 20 20 20 19 17 16 17 18 18 19 21 23 25 25 25 29
24 23 24 28 31 31 30 27 25 23 23 24 23 22 21 21 20 19 20 20 21 23 23 22 23 22 21 20 19 17 16 16 16 17 17 17 20 22 22 21 22 24 26
22 24 25 27 27 27 24 24 24 24 23 22 21 20 19 17 17 18 19 20 20 21 22 23 23 22 20 18 16 16 16 16 16 16 17 19 20 19 18 19 21 21 23
24 23 25 25 26 25 24 23 24 24 22 21 19 18 18 18 16 16 16 18 20 20 20 21 21 20 19 17 15 15 15 16 16 17 16 17 18 17 17 18 19 20 21
23 24 25 26 26 25 24 23 23 22 20 20 21 21 19 19 19 20 18 18 19 17 16 17 17 18 18 16 16 15 17 17 18 17 16 16 16 17 17 18 20 20 21
26 26 26 26 25 23 21 21 21 20 20 22 21 20 20 21 20 21 21 21 18 16 14 13 14 15 16 17 17 17 17 16 16 16 16 16 17 18 19 21 22 23 23